GW5051 Weather Reports


time (UTC)temp
C
wind
direction
speed
KPH
gust
KPH
rain 1hr
cm
rain 24hr
cm
rain mn
cm
humidity
%
barometer
mb
20260506150338 17 270 11.3 24.1 0.00 0.00 0.00 54 1016.4
20260506145834 18 68 6.4 22.5 0.00 0.00 0.00 55 1016.4
20260506145319 17 293 6.4 14.5 0.00 0.00 0.00 55 1016.3
20260506144809 17 293 6.4 12.9 0.00 0.00 0.00 58 1016.3
20260506144259 17 293 3.2 12.9 0.00 0.00 0.00 58 1016.1
20260506143749 16 293 4.8 12.9 0.00 0.00 0.00 59 1016.0
20260506143242 16 338 8.0 12.9 0.00 0.00 0.00 60 1015.9
20260506142728 16 315 4.8 9.7 0.00 0.00 0.00 61 1015.9
20260506142218 16 315 3.2 11.3 0.00 0.00 0.00 61 1015.9
20260506141707 16 338 6.4 11.3 0.00 0.00 0.00 62 1016.3
20260506141157 16 293 4.8 9.7 0.00 0.00 0.00 62 1015.7
20260506140654 16 270 4.8 6.4 0.00 0.00 0.00 62 1015.8
20260506140137 16 293 3.2 6.4 0.00 0.00 0.00 63 1016.3
20260506135627 16 270 1.6 6.4 0.00 0.00 0.00 65 1016.3
20260506134607 16 315 1.6 6.4 0.00 0.00 0.00 66 1016.6
20260506134102 15 270 3.2 6.4 0.00 0.00 0.00 66 1016.7
20260506133547 15 225 1.6 3.2 0.00 0.00 0.00 65 1016.8
20260506133037 15 270 3.2 3.2 0.00 0.00 0.00 64 1016.7
20260506132531 16 293 0.0 0.0 0.00 0.00 0.00 62 1016.5
20260506132016 16 45 0.0 0.0 0.00 0.00 0.00 63 1016.8
20260506131511 16 248 0.0 3.2 0.00 0.00 0.00 65 1016.9
20260506130956 15 225 0.0 6.4 0.00 0.00 0.00 68 1017.0
20260506130447 14 90 1.6 6.4 0.00 0.00 0.00 70 1016.8
20260506125936 14 68 3.2 6.4 0.00 0.00 0.00 72 1016.7
20260506125426 13 113 0.0 11.3 0.00 0.00 0.00 73 1016.8
20260506123856 13 90 3.2 9.7 0.00 0.00 0.00 72 1017.0
20260506123346 13 45 3.2 9.7 0.00 0.00 0.00 72 1016.9
20260506122330 13 68 3.2 6.4 0.00 0.00 0.00 73 1016.7
20260506121815 12 135 0.0 6.4 0.00 0.00 0.00 73 1017.0
20260506121305 12 90 0.0 6.4 0.00 0.00 0.00 76 1016.7
20260506120755 12 68 1.6 3.2 0.00 0.00 0.00 77 1016.8
20260506120245 11 90 0.0 3.2 0.00 0.00 0.00 78 1016.7
20260506115740 11 270 0.0 3.2 0.00 0.00 0.00 79 1016.8
20260506115226 11 0 0.0 0.0 0.00 0.00 0.00 79 1016.7
20260506114714 11 315 0.0 0.0 0.00 0.00 0.00 79 1016.8
20260506114205 11 270 0.0 0.0 0.00 0.00 0.00 78 1017.0
20260506113655 11 315 0.0 0.0 0.00 0.00 0.00 78 1016.9
20260506113149 11 293 0.0 3.2 0.00 0.00 0.00 78 1016.7
20260506112124 11 68 1.6 3.2 0.00 0.00 0.00 78 1016.1
20260506111614 11 113 1.6 3.2 0.00 0.00 0.00 78 1016.1
20260506111104 11 158 0.0 3.2 0.00 0.00 0.00 78 1016.1
20260506110043 11 203 0.0 3.2 0.00 0.00 0.00 77 1016.0
20260506105533 11 90 1.6 3.2 0.00 0.00 0.00 78 1015.6
20260506105024 11 113 3.2 3.2 0.00 0.00 0.00 78 1015.6
20260506104513 11 135 0.0 3.2 0.00 0.00 0.00 78 1015.9
20260506104007 11 180 3.2 3.2 0.00 0.00 0.00 78 1015.8
20260506103454 11 135 3.2 3.2 0.00 0.00 0.00 78 1015.7
20260506102943 11 158 3.2 3.2 0.00 0.00 0.00 78 1015.6
20260506102433 11 180 0.0 3.2 0.00 0.00 0.00 77 1015.4
20260506101923 11 90 1.6 3.2 0.00 0.00 0.00 77 1015.5
20260506101418 11 180 0.0 3.2 0.00 0.00 0.00 77 1015.5
20260506100903 11 135 0.0 0.0 0.00 0.00 0.00 77 1015.6
20260506100352 11 135 0.0 0.0 0.00 0.00 0.00 77 1015.4
20260506095842 11 90 0.0 6.4 0.00 0.00 0.00 77 1015.4
20260506095333 11 338 0.0 6.4 0.00 0.00 0.00 77 1015.3
20260506094826 11 90 3.2 6.4 0.00 0.00 0.00 78 1015.2
20260506094318 11 90 0.0 3.2 0.00 0.00 0.00 78 1015.2
20260506093802 11 248 0.0 3.2 0.00 0.00 0.00 79 1014.8
20260506093252 11 225 0.0 0.0 0.00 0.00 0.00 79 1014.9
20260506092743 11 180 0.0 0.0 0.00 0.00 0.00 79 1014.7
20260506092237 11 135 0.0 0.0 0.00 0.00 0.00 79 1014.7
20260506091721 11 90 0.0 0.0 0.00 0.00 0.00 79 1014.5
20260506091211 11 45 0.0 3.2 0.00 0.00 0.00 79 1014.8
20260506090701 11 315 0.0 3.2 0.00 0.00 0.00 78 1014.6
20260506090151 11 135 0.0 6.4 0.00 0.00 0.00 79 1014.2
20260506085646 11 135 3.2 6.4 0.00 0.00 0.00 79 1014.6
20260506085131 11 68 0.0 3.2 0.00 0.00 0.00 79 1014.6
20260506084620 11 90 1.6 6.4 0.00 0.00 0.00 79 1014.4
20260506083601 11 68 3.2 6.4 0.00 0.00 0.00 78 1014.2
20260506083055 11 90 3.2 6.4 0.00 0.00 0.00 78 1014.7
20260506082540 11 113 3.2 6.4 0.00 0.00 0.00 78 1014.6
20260506082030 11 113 3.2 6.4 0.00 0.00 0.00 78 1014.7
20260506081520 11 68 3.2 3.2 0.00 0.00 0.00 78 1014.7
20260506081010 11 203 0.0 3.2 0.00 0.00 0.00 78 1014.6
20260506080504 11 113 0.0 9.7 0.00 0.00 0.00 79 1014.5
20260506073359 12 225 3.2 6.4 0.00 0.00 0.00 77 1014.1
20260506072849 11 248 0.0 6.4 0.00 0.00 0.00 77 1014.1
20260506072339 11 203 3.2 6.4 0.00 0.00 0.00 77 1014.1
20260506071325 12 248 0.0 3.2 0.00 0.00 0.00 76 1014.0
20260506070809 12 225 0.0 6.4 0.00 0.00 0.00 76 1014.1
20260506070259 12 293 3.2 6.4 0.00 0.00 0.00 75 1014.4
20260506062142 12 225 0.0 3.2 0.00 0.00 0.00 73 1014.6
20260506060607 13 203 0.0 3.2 0.00 0.00 0.00 73 1014.6
20260506050916 13 68 0.0 3.2 0.00 0.00 0.00 72 1015.0
20260506050411 13 225 0.0 0.0 0.00 0.00 0.00 73 1015.0
20260506044836 13 248 0.0 0.0 0.00 0.00 0.00 72 1014.7
20260506043821 13 248 0.0 0.0 0.00 0.00 0.00 72 1014.9
20260506043305 13 158 0.0 3.2 0.00 0.00 0.00 72 1015.1
20260506042755 13 135 0.0 3.2 0.00 0.00 0.00 72 1015.1
20260506042245 13 180 1.6 3.2 0.00 0.00 0.00 72 1015.1
20260506041229 13 158 0.0 3.2 0.00 0.00 0.00 72 1015.2
20260506040715 13 203 0.0 6.4 0.00 0.00 0.00 72 1015.3
20260506040205 13 68 3.2 6.4 0.00 0.00 0.00 72 1015.3
20260506035655 13 135 1.6 6.4 0.00 0.00 0.00 72 1015.2
20260506035144 13 135 3.2 6.4 0.00 0.00 0.00 72 1015.4
20260506034123 13 113 3.2 6.4 0.00 0.00 0.00 72 1015.3
20260506033614 13 113 3.2 6.4 0.00 0.00 0.00 72 1015.4
20260506033104 13 113 4.8 6.4 0.00 0.00 0.00 72 1015.4
20260506032554 13 113 3.2 6.4 0.00 0.00 0.00 72 1015.5
20260506032048 13 135 3.2 6.4 0.00 0.00 0.00 72 1015.3
20260506031534 13 135 3.2 6.4 0.00 0.00 0.00 73 1015.1
20260506031025 13 158 3.2 6.4 0.00 0.00 0.00 72 1015.3
20260506030513 13 158 0.0 3.2 0.00 0.00 0.00 72 1015.3
20260506030003 13 180 0.0 3.2 0.00 0.00 0.00 72 1015.6
20260506025458 13 113 0.0 3.2 0.00 0.00 0.00 72 1015.4
20260506024944 13 158 0.0 0.0 0.00 0.00 0.00 72 1015.3
20260506024433 13 225 0.0 0.0 0.00 0.00 0.00 71 1015.2
20260506023922 13 113 0.0 3.2 0.00 0.00 0.00 71 1015.3
20260506022907 13 113 1.6 3.2 0.00 0.00 0.00 72 1015.3
20260506022353 13 158 1.6 3.2 0.00 0.00 0.00 71 1015.4
20260506021333 13 113 0.0 0.0 0.00 0.00 0.00 71 1015.3
20260506020317 13 158 0.0 3.2 0.00 0.00 0.00 71 1015.2
20260506015252 13 135 1.6 3.2 0.00 0.00 0.00 72 1015.2
20260506014741 13 135 3.2 3.2 0.00 0.00 0.00 72 1015.4
20260506013211 13 113 3.2 6.4 0.00 0.00 0.00 71 1015.4
20260506012702 13 90 0.0 6.4 0.00 0.00 0.00 71 1015.2
20260506012151 13 158 3.2 6.4 0.00 0.00 0.00 71 1015.5
20260506011641 13 158 4.8 6.4 0.00 0.00 0.00 71 1015.6
20260506010621 13 203 6.4 14.5 0.00 0.00 0.00 71 1015.5
20260506010110 13 158 4.8 14.5 0.00 0.00 0.00 71 1015.3
20260506005600 13 225 8.0 14.5 0.00 0.00 0.00 70 1015.6
20260506005050 13 135 8.0 12.9 0.00 0.00 0.00 70 1015.6
20260506004030 13 203 4.8 17.7 0.00 0.00 0.00 70 1015.5
20260506003010 14 180 11.3 17.7 0.00 0.00 0.00 69 1015.4
20260506001955 15 225 3.2 9.7 0.00 0.00 0.00 68 1015.1
20260506001439 15 180 4.8 9.7 0.00 0.00 0.00 68 1014.9
20260506000931 15 225 4.8 9.7 0.00 0.00 0.00 68 1014.8
20260506000419 15 135 6.4 6.4 0.00 0.00 0.00 67 1014.7
20260505235909 15 158 3.2 6.4 0.00 0.00 0.00 67 1014.5
20260505235405 15 158 0.0 3.2 0.00 0.00 0.00 67 1014.6
20260505234849 15 113 3.2 3.2 0.00 0.00 0.00 67 1014.4
20260505234339 15 158 3.2 6.4 0.00 0.00 0.00 67 1014.8
20260505233829 15 135 3.2 6.4 0.00 0.00 0.00 67 1014.5
20260505233319 15 135 3.2 11.3 0.00 0.00 0.00 66 1014.4
20260505232813 15 135 1.6 11.3 0.00 0.00 0.00 66 1014.2
20260505232258 15 158 6.4 11.3 0.00 0.00 0.00 66 1014.4
20260505231238 15 180 6.4 14.5 0.00 0.00 0.00 66 1014.2
20260505230729 15 203 8.0 12.9 0.00 0.00 0.00 66 1014.4
20260505230223 16 158 6.4 17.7 0.00 0.00 0.00 66 1014.0
20260505225708 16 180 6.4 17.7 0.00 0.00 0.00 65 1014.1
20260505225158 16 203 6.4 12.9 0.00 0.00 0.00 65 1014.1
20260505224648 16 225 6.4 17.7 0.00 0.00 0.00 65 1014.0
20260505224138 16 158 8.0 17.7 0.00 0.00 0.00 65 1013.9
20260505223637 16 225 8.0 17.7 0.00 0.00 0.00 65 1014.0
20260505223117 16 203 9.7 17.7 0.00 0.00 0.00 65 1013.5
20260505222608 16 180 8.0 12.9 0.00 0.00 0.00 64 1013.6
20260505222057 16 248 4.8 17.7 0.00 0.00 0.00 64 1013.7
20260505221547 16 203 11.3 17.7 0.00 0.00 0.00 64 1013.5
20260505221042 16 248 4.8 17.7 0.00 0.00 0.00 63 1013.6
20260505220016 17 180 8.0 14.5 0.00 0.00 0.00 63 1013.6
20260505215506 17 203 6.4 24.1 0.00 0.00 0.00 62 1013.1
20260505214957 17 180 12.9 24.1 0.00 0.00 0.00 62 1013.2
20260505213936 17 158 8.0 17.7 0.00 0.00 0.00 61 1012.9
20260505213426 18 203 9.7 17.7 0.00 0.00 0.00 61 1012.9
20260505212917 18 248 6.4 12.9 0.00 0.00 0.00 60 1012.9
20260505212406 18 135 4.8 12.9 0.00 0.00 0.00 60 1012.7
20260505211900 18 180 6.4 17.7 0.00 0.00 0.00 59 1012.7
20260505211347 18 248 6.4 17.7 0.00 0.00 0.00 59 1012.6
20260505205816 18 180 8.0 12.9 0.00 0.00 0.00 58 1012.2
20260505205309 18 180 3.2 12.9 0.00 0.00 0.00 57 1012.9
20260505204755 18 113 3.2 12.9 0.00 0.00 0.00 56 1012.4
20260505204245 19 203 9.7 14.5 0.00 0.00 0.00 56 1012.7
20260505203736 19 158 6.4 14.5 0.00 0.00 0.00 55 1012.4
20260505203224 19 180 6.4 14.5 0.00 0.00 0.00 54 1012.6
20260505202720 19 180 6.4 14.5 0.00 0.00 0.00 52 1012.7
20260505202204 19 158 6.4 11.3 0.00 0.00 0.00 51 1012.6
20260505200635 20 180 8.0 12.9 0.00 0.00 0.00 49 1012.6
20260505195614 20 203 6.4 14.5 0.00 0.00 0.00 49 1012.3
20260505195104 20 135 8.0 17.7 0.00 0.00 0.00 49 1012.3
20260505194554 20 113 11.3 17.7 0.00 0.00 0.00 49 1012.8
20260505193538 20 203 9.7 17.7 0.00 0.00 0.00 47 1012.3
20260505192514 20 158 8.0 17.7 0.00 0.00 0.00 46 1012.4
20260505192003 20 180 3.2 9.7 0.00 0.00 0.00 46 1012.1
20260505190948 21 180 4.8 11.3 0.00 0.00 0.00 45 1012.2
20260505190433 21 225 4.8 12.9 0.00 0.00 0.00 44 1012.1
20260505185922 21 203 4.8 12.9 0.00 0.00 0.00 43 1012.2
20260505185417 21 180 8.0 12.9 0.00 0.00 0.00 43 1012.2
20260505184902 21 225 3.2 12.9 0.00 0.00 0.00 42 1012.2
20260505184357 21 203 6.4 12.9 0.00 0.00 0.00 42 1012.1
20260505182823 21 203 8.0 14.5 0.00 0.00 0.00 41 1012.1
20260505182312 21 203 6.4 12.9 0.00 0.00 0.00 40 1012.0
20260505181807 21 248 4.8 12.9 0.00 0.00 0.00 40 1012.1
20260505181252 21 203 8.0 12.9 0.00 0.00 0.00 39 1012.0
20260505180742 21 225 6.4 12.9 0.00 0.00 0.00 39 1012.1
20260505175721 21 225 4.8 12.9 0.00 0.00 0.00 39 1011.9
20260505175216 21 225 6.4 12.9 0.00 0.00 0.00 38 1012.0
20260505174701 21 225 9.7 12.9 0.00 0.00 0.00 37 1012.0
20260505174151 22 180 4.8 14.5 0.00 0.00 0.00 37 1012.1
20260505173130 22 203 4.8 12.9 0.00 0.00 0.00 35 1011.7
20260505172625 22 158 6.4 11.3 0.00 0.00 0.00 35 1011.9
20260505172111 22 158 6.4 11.3 0.00 0.00 0.00 35 1011.8
20260505171601 22 225 6.4 11.3 0.00 0.00 0.00 35 1011.9
20260505171050 22 180 3.2 11.3 0.00 0.00 0.00 35 1011.8
20260505170541 22 203 3.2 11.3 0.00 0.00 0.00 35 1011.9
20260505170034 22 180 3.2 6.4 0.00 0.00 0.00 35 1011.9
20260505165519 22 248 3.2 6.4 0.00 0.00 0.00 36 1011.9
20260505165010 22 113 1.6 6.4 0.00 0.00 0.00 36 1012.1
20260505164500 22 180 6.4 6.4 0.00 0.00 0.00 36 1012.0
20260505163950 22 270 4.8 6.4 0.00 0.00 0.00 36 1012.0
20260505163445 23 180 1.6 6.4 0.00 0.00 0.00 35 1012.0
20260505162929 22 248 0.0 6.4 0.00 0.00 0.00 37 1012.2
20260505162420 21 225 3.2 6.4 0.00 0.00 0.00 37 1012.2
20260505161909 21 315 4.8 6.4 0.00 0.00 0.00 37 1012.3
20260505161359 21 270 3.2 9.7 0.00 0.00 0.00 38 1012.1
20260505160854 20 225 6.4 9.7 0.00 0.00 0.00 38 1012.3
20260505160338 21 225 3.2 6.4 0.00 0.00 0.00 37 1012.3
20260505152728 20 248 1.6 6.4 0.00 0.00 0.00 39 1012.7
20260505152218 20 270 3.2 6.4 0.00 0.00 0.00 39 1012.9